Time,TemperatureF,DewpointF,PressureIn,WindDirection,WindDirectionDegrees,WindSpeedMPH,WindSpeedGustMPH,Humidity,HourlyPrecipIn,Conditions,Clouds,dailyrainin,SoftwareType,DateUTC
2013-02-15 00:02:00,3.0,-4.0,30.34,West,261,2.0,4.0,71,0.00,,,0.00,,2013-02-15 06:02:00,
2013-02-15 00:11:00,3.0,-4.0,30.34,West,261,2.0,4.0,71,0.00,,,0.00,,2013-02-15 06:11:00,
2013-02-15 00:21:00,5.0,-2.0,30.35,West,279,2.0,4.0,72,0.00,,,0.00,,2013-02-15 06:21:00,
2013-02-15 00:32:00,3.0,-5.0,30.35,West,279,1.0,3.0,69,0.00,,,0.00,,2013-02-15 06:32:00,
2013-02-15 00:42:00,3.0,-5.0,30.35,West,279,1.0,3.0,69,0.00,,,0.00,,2013-02-15 06:42:00,
2013-02-15 00:51:00,2.0,-6.0,30.35,West,279,1.0,3.0,70,0.00,,,0.00,,2013-02-15 06:51:00,
2013-02-15 01:01:00,3.0,-4.0,30.35,West,279,3.0,4.0,72,0.00,,,0.00,,2013-02-15 07:01:00,
2013-02-15 01:11:00,3.0,-4.0,30.35,West,279,3.0,4.0,72,0.00,,,0.00,,2013-02-15 07:11:00,
2013-02-15 01:21:00,5.0,-2.0,30.35,West,267,4.0,5.0,72,0.00,,,0.00,,2013-02-15 07:21:00,
2013-02-15 01:31:00,5.0,-2.0,30.35,West,266,4.0,5.0,71,0.00,,,0.00,,2013-02-15 07:31:00,
2013-02-15 01:42:00,5.0,-2.0,30.35,West,266,4.0,5.0,71,0.00,,,0.00,,2013-02-15 07:42:00,
2013-02-15 01:52:00,5.0,-3.0,30.36,West,266,4.0,6.0,70,0.00,,,0.00,,2013-02-15 07:52:00,
2013-02-15 02:01:00,4.0,-4.0,30.36,West,266,4.0,6.0,69,0.00,,,0.00,,2013-02-15 08:01:00,
2013-02-15 02:11:00,4.0,-4.0,30.36,West,266,4.0,6.0,69,0.00,,,0.00,,2013-02-15 08:11:00,
2013-02-15 02:21:00,4.0,-3.0,30.36,West,266,3.0,5.0,71,0.00,,,0.00,,2013-02-15 08:21:00,
2013-02-15 02:32:00,4.0,-4.0,30.36,West,266,2.0,5.0,69,0.00,,,0.00,,2013-02-15 08:32:00,
2013-02-15 02:42:00,4.0,-4.0,30.36,West,266,2.0,5.0,69,0.00,,,0.00,,2013-02-15 08:42:00,
2013-02-15 02:52:00,3.0,-5.0,30.37,West,266,2.0,5.0,70,0.00,,,0.00,,2013-02-15 08:52:00,
2013-02-15 03:01:00,2.0,-6.0,30.37,West,266,1.0,3.0,69,0.00,,,0.00,,2013-02-15 09:01:00,
2013-02-15 03:12:00,2.0,-6.0,30.37,West,266,1.0,3.0,69,0.00,,,0.00,,2013-02-15 09:12:00,
2013-02-15 03:21:00,2.0,-5.0,30.37,West,266,1.0,2.0,71,0.00,,,0.00,,2013-02-15 09:21:00,
2013-02-15 03:32:00,1.0,-6.0,30.37,West,266,1.0,2.0,71,0.00,,,0.00,,2013-02-15 09:32:00,
2013-02-15 03:42:00,1.0,-6.0,30.37,West,266,1.0,2.0,71,0.00,,,0.00,,2013-02-15 09:42:00,
2013-02-15 03:52:00,2.0,-5.0,30.37,West,266,2.0,3.0,73,0.00,,,0.00,,2013-02-15 09:52:00,
2013-02-15 04:01:00,2.0,-5.0,30.38,West,266,1.0,3.0,71,0.00,,,0.00,,2013-02-15 10:01:00,
2013-02-15 04:11:00,2.0,-5.0,30.38,West,266,1.0,3.0,71,0.00,,,0.00,,2013-02-15 10:11:00,
2013-02-15 04:21:00,1.0,-6.0,30.38,West,266,2.0,3.0,72,0.00,,,0.00,,2013-02-15 10:21:00,
2013-02-15 04:31:00,1.0,-6.0,30.38,West,266,1.0,3.0,73,0.00,,,0.00,,2013-02-15 10:31:00,
2013-02-15 04:41:00,1.0,-6.0,30.38,West,266,1.0,3.0,73,0.00,,,0.00,,2013-02-15 10:41:00,
2013-02-15 04:51:00,1.0,-6.0,30.38,West,266,0.0,2.0,73,0.00,,,0.00,,2013-02-15 10:51:00,
2013-02-15 05:01:00,0.0,-7.0,30.38,West,266,0.0,2.0,72,0.00,,,0.00,,2013-02-15 11:01:00,
2013-02-15 05:11:00,0.0,-7.0,30.38,West,266,0.0,2.0,72,0.00,,,0.00,,2013-02-15 11:11:00,
2013-02-15 05:22:00,1.0,-5.0,30.38,West,266,0.0,2.0,75,0.00,,,0.00,,2013-02-15 11:22:00,
2013-02-15 05:32:00,2.0,-4.0,30.38,West,266,0.0,2.0,74,0.00,,,0.00,,2013-02-15 11:32:00,
2013-02-15 05:42:00,2.0,-4.0,30.38,West,266,0.0,2.0,74,0.00,,,0.00,,2013-02-15 11:42:00,
2013-02-15 05:52:00,0.0,-7.0,30.39,West,266,2.0,3.0,72,0.00,,,0.00,,2013-02-15 11:52:00,
2013-02-15 06:02:00,0.0,-6.0,30.39,West,266,1.0,2.0,74,0.00,,,0.00,,2013-02-15 12:02:00,
2013-02-15 06:11:00,0.0,-6.0,30.39,West,266,1.0,2.0,74,0.00,,,0.00,,2013-02-15 12:11:00,
2013-02-15 06:21:00,0.0,-6.0,30.39,West,266,0.0,2.0,74,0.00,,,0.00,,2013-02-15 12:21:00,
2013-02-15 06:32:00,0.0,-7.0,30.39,West,266,1.0,3.0,73,0.00,,,0.00,,2013-02-15 12:32:00,
2013-02-15 06:42:00,0.0,-7.0,30.39,West,266,1.0,3.0,73,0.00,,,0.00,,2013-02-15 12:42:00,
2013-02-15 06:52:00,0.0,-7.0,30.39,West,266,0.0,2.0,73,0.00,,,0.00,,2013-02-15 12:52:00,
2013-02-15 07:02:00,0.0,-6.0,30.40,West,266,0.0,1.0,74,0.00,,,0.00,,2013-02-15 13:02:00,
2013-02-15 07:11:00,0.0,-6.0,30.40,West,266,0.0,1.0,74,0.00,,,0.00,,2013-02-15 13:11:00,
2013-02-15 07:21:00,0.0,-7.0,30.40,West,266,0.0,2.0,73,0.00,,,0.00,,2013-02-15 13:21:00,
2013-02-15 07:32:00,-1.0,-8.0,30.40,West,266,1.0,2.0,71,0.00,,,0.00,,2013-02-15 13:32:00,
2013-02-15 07:41:00,-1.0,-8.0,30.40,West,266,1.0,2.0,71,0.00,,,0.00,,2013-02-15 13:41:00,
2013-02-15 07:52:00,-2.0,-9.0,30.41,West,266,0.0,2.0,72,0.00,,,0.00,,2013-02-15 13:52:00,
2013-02-15 08:01:00,0.0,-6.0,30.41,West,266,0.0,1.0,74,0.00,,,0.00,,2013-02-15 14:01:00,
2013-02-15 08:11:00,0.0,-6.0,30.41,West,266,0.0,1.0,74,0.00,,,0.00,,2013-02-15 14:11:00,
2013-02-15 08:21:00,2.0,-4.0,30.41,West,266,0.0,2.0,74,0.00,,,0.00,,2013-02-15 14:21:00,
2013-02-15 08:32:00,2.0,-5.0,30.42,West,266,1.0,2.0,73,0.00,,,0.00,,2013-02-15 14:32:00,
2013-02-15 08:41:00,2.0,-5.0,30.42,West,266,1.0,2.0,73,0.00,,,0.00,,2013-02-15 14:41:00,
2013-02-15 08:52:00,2.0,-5.0,30.43,West,266,0.0,2.0,73,0.00,,,0.00,,2013-02-15 14:52:00,
2013-02-15 09:01:00,3.0,-4.0,30.43,West,266,0.0,3.0,72,0.00,,,0.00,,2013-02-15 15:01:00,
2013-02-15 09:11:00,3.0,-4.0,30.43,West,266,0.0,3.0,72,0.00,,,0.00,,2013-02-15 15:11:00,
2013-02-15 09:21:00,3.0,-4.0,30.44,West,265,0.0,2.0,73,0.00,,,0.00,,2013-02-15 15:21:00,
2013-02-15 09:32:00,5.0,-2.0,30.44,ESE,112,0.0,3.0,73,0.00,,,0.00,,2013-02-15 15:32:00,
2013-02-15 09:42:00,5.0,-2.0,30.44,ESE,112,0.0,3.0,73,0.00,,,0.00,,2013-02-15 15:42:00,
2013-02-15 09:51:00,6.0,-1.0,30.45,NW,325,1.0,3.0,73,0.00,,,0.00,,2013-02-15 15:51:00,
2013-02-15 10:02:00,7.0,0.0,30.46,North,360,0.0,5.0,73,0.00,,,0.00,,2013-02-15 16:02:00,
2013-02-15 10:11:00,7.0,0.0,30.46,North,360,0.0,5.0,73,0.00,,,0.00,,2013-02-15 16:11:00,
2013-02-15 10:22:00,8.0,1.0,30.45,West,267,0.0,5.0,73,0.00,,,0.00,,2013-02-15 16:22:00,
2013-02-15 10:32:00,10.0,3.0,30.45,North,355,1.0,6.0,72,0.00,,,0.00,,2013-02-15 16:32:00,
2013-02-15 10:42:00,10.0,3.0,30.45,North,355,1.0,6.0,72,0.00,,,0.00,,2013-02-15 16:42:00,
2013-02-15 10:51:00,10.0,3.0,30.46,NNW,343,2.0,4.0,71,0.00,,,0.00,,2013-02-15 16:51:00,
2013-02-15 11:01:00,9.0,1.0,30.46,ENE,77,2.0,5.0,70,0.00,,,0.00,,2013-02-15 17:01:00,
2013-02-15 11:11:00,10.0,2.0,30.46,East,94,1.0,5.0,70,0.00,,,0.00,,2013-02-15 17:11:00,
2013-02-15 11:21:00,10.0,2.0,30.46,East,94,1.0,5.0,70,0.00,,,0.00,,2013-02-15 17:21:00,
2013-02-15 11:32:00,10.0,2.0,30.46,East,94,1.0,5.0,70,0.00,,,0.00,,2013-02-15 17:32:00,
2013-02-15 11:42:00,10.0,2.0,30.46,East,94,1.0,5.0,70,0.00,,,0.00,,2013-02-15 17:42:00,
2013-02-15 11:52:00,10.0,2.0,30.46,West,265,3.0,4.0,68,0.00,,,0.00,,2013-02-15 17:52:00,
2013-02-15 12:01:00,11.0,3.0,30.46,West,261,2.0,4.0,68,0.00,,,0.00,,2013-02-15 18:01:00,
2013-02-15 12:11:00,11.0,3.0,30.46,West,261,2.0,4.0,68,0.00,,,0.00,,2013-02-15 18:11:00,
2013-02-15 12:21:00,12.0,3.0,30.47,West,279,2.0,4.0,67,0.00,,,0.00,,2013-02-15 18:21:00,
2013-02-15 12:32:00,12.0,3.0,30.46,West,265,1.0,5.0,66,0.00,,,0.00,,2013-02-15 18:32:00,
2013-02-15 12:42:00,12.0,3.0,30.46,West,265,1.0,5.0,66,0.00,,,0.00,,2013-02-15 18:42:00,
2013-02-15 12:52:00,13.0,3.0,30.47,NNW,348,1.0,4.0,64,0.00,,,0.00,,2013-02-15 18:52:00,
2013-02-15 13:01:00,14.0,3.0,30.47,West,281,1.0,4.0,62,0.00,,,0.00,,2013-02-15 19:01:00,
2013-02-15 13:11:00,14.0,3.0,30.47,West,281,1.0,4.0,62,0.00,,,0.00,,2013-02-15 19:11:00,
2013-02-15 13:22:00,15.0,4.0,30.47,West,272,0.0,3.0,61,0.00,,,0.00,,2013-02-15 19:22:00,
2013-02-15 13:32:00,15.0,4.0,30.46,North,355,2.0,4.0,62,0.00,,,0.00,,2013-02-15 19:32:00,
2013-02-15 13:41:00,15.0,4.0,30.46,North,355,2.0,4.0,62,0.00,,,0.00,,2013-02-15 19:41:00,
2013-02-15 13:52:00,15.0,4.0,30.47,North,350,1.0,6.0,61,0.00,,,0.00,,2013-02-15 19:52:00,
2013-02-15 14:01:00,15.0,4.0,30.47,NNW,333,3.0,6.0,60,0.00,,,0.00,,2013-02-15 20:01:00,
2013-02-15 14:11:00,15.0,4.0,30.47,NNW,333,3.0,6.0,60,0.00,,,0.00,,2013-02-15 20:11:00,
2013-02-15 14:21:00,15.0,4.0,30.46,NNW,340,2.0,6.0,60,0.00,,,0.00,,2013-02-15 20:21:00,
2013-02-15 14:32:00,16.0,4.0,30.46,NNE,22,0.0,4.0,59,0.00,,,0.00,,2013-02-15 20:32:00,
2013-02-15 14:42:00,16.0,4.0,30.46,NNE,22,0.0,4.0,59,0.00,,,0.00,,2013-02-15 20:42:00,
2013-02-15 14:52:00,15.0,4.0,30.46,NW,325,2.0,3.0,60,0.00,,,0.00,,2013-02-15 20:52:00,
2013-02-15 15:01:00,16.0,5.0,30.46,WNW,294,3.0,5.0,60,0.00,,,0.00,,2013-02-15 21:01:00,
2013-02-15 15:11:00,16.0,5.0,30.46,WNW,294,3.0,5.0,60,0.00,,,0.00,,2013-02-15 21:11:00,
2013-02-15 15:21:00,16.0,5.0,30.46,WNW,287,2.0,6.0,60,0.00,,,0.00,,2013-02-15 21:21:00,
2013-02-15 15:32:00,16.0,5.0,30.45,WNW,284,2.0,5.0,60,0.00,,,0.00,,2013-02-15 21:32:00,
2013-02-15 15:42:00,16.0,5.0,30.45,WNW,284,2.0,5.0,60,0.00,,,0.00,,2013-02-15 21:42:00,
2013-02-15 15:52:00,17.0,6.0,30.45,West,274,1.0,6.0,62,0.00,,,0.00,,2013-02-15 21:52:00,
2013-02-15 16:02:00,17.0,6.0,30.45,West,281,2.0,6.0,61,0.00,,,0.00,,2013-02-15 22:02:00,
2013-02-15 16:11:00,17.0,6.0,30.45,West,281,2.0,6.0,61,0.00,,,0.00,,2013-02-15 22:11:00,
2013-02-15 16:21:00,17.0,6.0,30.45,NW,318,2.0,5.0,61,0.00,,,0.00,,2013-02-15 22:21:00,
2013-02-15 16:31:00,17.0,7.0,30.45,WNW,284,0.0,4.0,63,0.00,,,0.00,,2013-02-15 22:31:00,
2013-02-15 16:41:00,17.0,7.0,30.45,WNW,284,0.0,4.0,63,0.00,,,0.00,,2013-02-15 22:41:00,
2013-02-15 16:52:00,17.0,6.0,30.45,WSW,254,3.0,5.0,62,0.00,,,0.00,,2013-02-15 22:52:00,
2013-02-15 17:02:00,16.0,6.0,30.45,West,267,4.0,7.0,63,0.00,,,0.00,,2013-02-15 23:02:00,
2013-02-15 17:11:00,16.0,6.0,30.45,West,267,4.0,7.0,63,0.00,,,0.00,,2013-02-15 23:11:00,
2013-02-15 17:21:00,15.0,5.0,30.45,West,266,4.0,7.0,65,0.00,,,0.00,,2013-02-15 23:21:00,
2013-02-15 17:31:00,14.0,5.0,30.45,West,261,4.0,5.0,66,0.00,,,0.00,,2013-02-15 23:31:00,
2013-02-15 17:42:00,14.0,5.0,30.45,West,261,4.0,5.0,66,0.00,,,0.00,,2013-02-15 23:42:00,
2013-02-15 17:52:00,15.0,6.0,30.44,West,266,3.0,5.0,67,0.00,,,0.00,,2013-02-15 23:52:00,
2013-02-15 18:02:00,15.0,6.0,30.44,West,263,3.0,5.0,66,0.00,,,0.00,,2013-02-16 00:02:00,
2013-02-15 18:11:00,15.0,6.0,30.44,West,263,3.0,5.0,66,0.00,,,0.00,,2013-02-16 00:11:00,
2013-02-15 18:21:00,14.0,5.0,30.44,West,269,3.0,6.0,67,0.00,,,0.00,,2013-02-16 00:21:00,
2013-02-15 18:32:00,13.0,4.0,30.43,West,273,3.0,4.0,67,0.00,,,0.00,,2013-02-16 00:32:00,
2013-02-15 18:41:00,13.0,4.0,30.43,West,273,3.0,4.0,67,0.00,,,0.00,,2013-02-16 00:41:00,
2013-02-15 18:52:00,13.0,4.0,30.43,West,273,2.0,4.0,68,0.00,,,0.00,,2013-02-16 00:52:00,
2013-02-15 19:02:00,11.0,3.0,30.43,West,273,4.0,5.0,69,0.00,,,0.00,,2013-02-16 01:02:00,
2013-02-15 19:11:00,11.0,3.0,30.43,West,273,4.0,5.0,69,0.00,,,0.00,,2013-02-16 01:11:00,
2013-02-15 19:21:00,10.0,2.0,30.42,West,268,2.0,5.0,69,0.00,,,0.00,,2013-02-16 01:21:00,
2013-02-15 19:31:00,9.0,1.0,30.42,West,268,1.0,4.0,69,0.00,,,0.00,,2013-02-16 01:31:00,
2013-02-15 19:41:00,9.0,1.0,30.42,West,268,1.0,4.0,69,0.00,,,0.00,,2013-02-16 01:41:00,
2013-02-15 19:52:00,7.0,-1.0,30.42,West,268,0.0,2.0,70,0.00,,,0.00,,2013-02-16 01:52:00,
2013-02-15 20:01:00,6.0,-1.0,30.42,West,268,0.0,0.0,72,0.00,,,0.00,,2013-02-16 02:01:00,
2013-02-15 20:11:00,6.0,-1.0,30.42,West,268,0.0,0.0,72,0.00,,,0.00,,2013-02-16 02:11:00,
2013-02-15 20:21:00,7.0,0.0,30.42,West,272,0.0,1.0,74,0.00,,,0.00,,2013-02-16 02:21:00,
2013-02-15 20:31:00,8.0,2.0,30.42,West,272,0.0,1.0,75,0.00,,,0.00,,2013-02-16 02:31:00,
2013-02-15 20:42:00,8.0,2.0,30.42,West,272,0.0,1.0,75,0.00,,,0.00,,2013-02-16 02:42:00,
2013-02-15 20:52:00,7.0,0.0,30.41,West,272,0.0,1.0,72,0.00,,,0.00,,2013-02-16 02:52:00,
2013-02-15 21:01:00,4.0,-3.0,30.41,West,272,0.0,2.0,72,0.00,,,0.00,,2013-02-16 03:01:00,
2013-02-15 21:21:00,4.0,-2.0,30.40,West,272,0.0,1.0,74,0.00,,,0.00,,2013-02-16 03:21:00,
2013-02-15 21:32:00,4.0,-2.0,30.40,West,272,0.0,1.0,74,0.00,,,0.00,,2013-02-16 03:32:00,
2013-02-15 21:41:00,4.0,-2.0,30.40,West,272,0.0,1.0,74,0.00,,,0.00,,2013-02-16 03:41:00,
2013-02-15 21:52:00,6.0,0.0,30.40,West,272,0.0,0.0,75,0.00,,,0.00,,2013-02-16 03:52:00,
2013-02-15 22:01:00,6.0,0.0,30.39,West,272,0.0,1.0,74,0.00,,,0.00,,2013-02-16 04:01:00,
2013-02-15 22:11:00,6.0,0.0,30.39,West,272,0.0,1.0,74,0.00,,,0.00,,2013-02-16 04:11:00,
2013-02-15 22:21:00,6.0,0.0,30.39,West,272,0.0,0.0,75,0.00,,,0.00,,2013-02-16 04:21:00,
2013-02-15 22:32:00,6.0,0.0,30.38,West,272,0.0,1.0,74,0.00,,,0.00,,2013-02-16 04:32:00,
2013-02-15 22:41:00,6.0,0.0,30.38,West,272,0.0,1.0,74,0.00,,,0.00,,2013-02-16 04:41:00,
2013-02-15 22:52:00,6.0,0.0,30.38,West,272,0.0,0.0,74,0.00,,,0.00,,2013-02-16 04:52:00,
2013-02-15 23:01:00,6.0,0.0,30.38,West,272,0.0,0.0,74,0.00,,,0.00,,2013-02-16 05:01:00,
2013-02-15 23:12:00,6.0,0.0,30.38,West,272,0.0,0.0,74,0.00,,,0.00,,2013-02-16 05:12:00,
2013-02-15 23:22:00,6.0,0.0,30.37,West,272,0.0,0.0,74,0.00,,,0.00,,2013-02-16 05:22:00,
2013-02-15 23:32:00,6.0,0.0,30.36,West,272,0.0,1.0,74,0.00,,,0.00,,2013-02-16 05:32:00,
2013-02-15 23:42:00,6.0,0.0,30.36,West,272,0.0,1.0,74,0.00,,,0.00,,2013-02-16 05:42:00,
2013-02-15 23:52:00,6.0,-1.0,30.35,West,272,0.0,0.0,73,0.00,,,0.00,,2013-02-16 05:52:00,